www.pogodaiklimat.ru
ПОГОДА в Нонгбуалампху
Время
(UTC), дата
12 29.05
15 29.05
18 29.05
21 29.05
00 30.05
03 30.05
06 30.05
09 30.05
12 30.05
15 30.05
18 30.05
21 30.05
00 31.05
03 31.05
06 31.05
09 31.05
12 31.05
15 31.05
18 31.05
21 31.05
00 1.06
03 1.06
06 1.06
09 1.06
12 1.06
15 1.06
18 1.06
21 1.06
00 2.06
03 2.06
06 2.06
09 2.06
12 2.06
15 2.06
18 2.06
21 2.06
00 3.06
03 3.06
06 3.06
09 3.06
12 3.06
15 3.06
18 3.06
21 3.06
00 4.06
03 4.06
06 4.06
09 4.06
12 4.06
15 4.06
18 4.06
21 4.06
00 5.06
03 5.06
06 5.06
09 5.06
Ветер
(напр.,м/с)
Видим. Явления Облачность Т
(С)
Тd
(С)
f
(%)
Тe
(С)
Тes
(С)
Комфортность P
(гПа)
Po
(гПа)
Тmin
(С)
Tmax
(С)
R
(мм)
R24
(мм)
S
(см)
штиль 0 12 км 9/4 600 м
[Sc Ac und Cs]
+30.1 +25.9 78 +45 +45 опасность
перегрева
1006.4 980.9 +33.2 17.8
З 2 10 км {гроза} 8/3 600 м
[Sc Ac As Cs]
+26.5 +25.1 92 +38 +38 очень
душно
1009.8 983.9 0.6
ЮВ 3 9000 м дымка {гроза} 6/0
[Ac As Cs]
+25.3 +24.4 95 +35 +35 очень
душно
1009.7 983.7 0.6 4.1
штиль 0 8000 м дымка 6/0
[Cs]
+25.1 +24.8 98 +35 +35 очень
душно
1009.5 983.5
В 3 10 км 10/4 600 м
[Sc diur, vesp Ac und Cs]
+25.1 +24.2 95 +35 +35 очень
душно
1011.7 985.7 +24.5 0.6
В 3 10 км 6/6 600 м
[Cu Sc]
+28.0 +24.4 81 +39 +45 очень
душно
1011.0 985.3
ЮВ 3 11 км 6/6 600 м
[Cu Sc]
+32.5 +24.7 64 +46 +53 опасность
перегрева
1008.5 983.1 0.6
В 6 11 км гроза без осадков 8/8 600 м
[Cb cap Ci ing]
+30.0 +25.0 75 +43 +44 опасность
перегрева
1006.1 980.6
штиль 0 10 км {гроза, дождь} 8/5 600 м
[Cb cap Ac As Cs]
+25.5 +25.3 99 +37 +37 очень
душно
1007.4 981.5 +33.5 19 20.0
штиль 0 10 км гроза без осадков 8/4
[Cb cap Ac As Cs]
+26.0 +25.4 97 +38 +38 очень
душно
1010.0 984.1
штиль 0 10 км {гроза, дождь} 9/5 600 м
[Sc Ac As Cs]
+25.0 +24.3 96 +35 +35 очень
душно
1009.7 983.7 0.2 19.6
штиль 0 10 км в посл. час дождь 9/4 600 м
[Sc Ac As Cs]
+24.7 +24.4 98 +34 +34 очень
душно
1009.7 983.7 0.0
В 3 11 км {дождь} 10/0
[Ac As Cs]
+25.0 +24.6 98 +35 +36 очень
душно
1010.9 984.9 +24.7 20 19.6
штиль 0 15 км 10/4 600 м
[Sc Ac trans Cs]
+27.7 +25.3 87 +40 +47 очень
душно
1011.2 985.4
С 3 14 км 10/4 600 м
[Sc Ac trans Cs]
+29.6 +23.7 71 +41 +46 опасность
перегрева
1009.7 984.1 19.6
ЮВ 2 15 км 6/3 600 м
[Cu med, cong Ac trans Cs]
+30.7 +22.3 61 +40 +44 очень
душно
1007.2 981.8
штиль 0 12 км 9/0
[Ac trans Cs]
+29.5 +23.7 71 +40 +40 очень
душно
1009.3 983.7 +34.2 0.2
штиль 0 11 км 6/0
[Ac trans Cs]
+27.8 +24.5 82 +39 +39 очень
душно
1009.7 983.9
штиль 0 11 км 8/0
[Ac trans Cs]
+27.0 +24.1 84 +37 +37 очень
душно
1008.4 982.6 0.0
З 4 10 км {дождь} 10/4 600 м
[Sc Ac As Cs]
+27.0 +25.6 92 +40 +40 очень
душно
1007.8 982.0 4
штиль 0 9000 м слаб. дождь {гроза} 10/4 600 м
[Sc Ac As Cs]
+25.1 +24.8 98 +35 +36 очень
душно
1009.6 983.6 +24.9 0.3 4.6
штиль 0 9000 м дымка {дождь} 10/3 600 м
[Sc diur, vesp Ac As Cs]
+27.6 +26.3 93 +42 +50 опасность
перегрева
1011.1 985.3 0.7
З 2 11 км {дождь} 9/3 600 м
[Sc diur, vesp Ac As Cs]
+31.9 +25.6 69 +46 +55 опасность
перегрева
1008.7 983.3 0.7 5.3
В 4 10 км гроза без осадков 8/3 600 м
[Cu Sc Ac und Ci ing]
+31.1 +23.1 63 +42 +44 опасность
перегрева
1006.3 980.9
штиль 0 11 км {гроза} 8/3 600 м
[Sc diur, vesp Ac As Cs]
+27.7 +23.9 80 +38 +38 очень
душно
1007.5 981.8 +33.9 5.3
штиль 0 10 км 6/3 600 м
[Sc diur, vesp Ac As Cs]
+26.7 +24.1 86 +37 +37 очень
душно
1009.2 983.4
В 2 10 км 6/0
[Ac As Cs]
+25.9 +23.4 86 +35 +35 очень
душно
1008.4 982.5 5.3
В 2 9000 м дымка 4/0
[Cs]
+25.8 +24.8 94 +37 +37 очень
душно
1007.1 981.2
штиль 0 10 км 6/0
[Ci]
+26.7 +24.4 87 +37 +40 очень
душно
1008.7 982.9 +25.2 0.7
штиль 0 12 км 8/4 1000 м
[Sc Ac As Cs]
+30.2 +24.2 70 +42 +51 опасность
перегрева
1009.5 983.9
штиль 0 12 км 8/6 1000 м
[Sc Ac As Cs]
+32.7 +23.8 60 +44 +53 опасность
перегрева
1007.1 981.8
В 3 12 км гроза без осадков 9/6 600 м
[Cb cap Ac As Cs]
+27.0 +24.1 84 +37 +39 очень
душно
1005.1 979.4
штиль 0 10 км {гроза, дождь} 10/5 600 м
[Cb cap Ac As Cs]
+25.5 +24.8 96 +36 +36 очень
душно
1006.2 980.3 +34.2 3 3.0
штиль 0 10 км 9/4 600 м
[Sc Ac As Cs]
+25.3 +24.9 98 +36 +36 очень
душно
1008.6 982.6
штиль 0 10 км 9/4 600 м
[Sc Ac As Cs]
+24.8 +24.4 98 +35 +35 очень
душно
1007.3 981.4 3.0
штиль 0 10 км 8/4 600 м
[Sc Ac As Cs]
+24.2 +23.9 98 +33 +33 очень
душно
1006.7 980.7
штиль 0 9000 м дымка 4/0
[Ci fib]
+25.5 +24.5 94 +36 +38 очень
душно
1007.5 981.6 +24.2 3.0
З 3 15 км 6/3 600 м
[Cu med, cong Ac trans Cs]
+29.4 +24.2 74 +41 +49 опасность
перегрева
1008.1 982.5
штиль 0 15 км 6/3 600 м
[Cu med, cong Ac trans Cs]
+32.5 +22.8 57 +43 +58 опасность
перегрева
1005.4 980.1 3.0
В 4 15 км 4/3 600 м
[Cu med, cong Cs]
+32.5 +22.3 55 +42 +45 опасность
перегрева
1002.8 977.6
ЮВ 5 14 км гроза без осадков 6/6 600 м
[Cb cap Ac cuf Ci ing]
+30.3 +23.5 67 +41 +41 опасность
перегрева
1003.8 978.4 +35.2
ЮВ 3 12 км {гроза} 4/0
[Ac trans Cs]
+28.4 +24.1 78 +40 +40 очень
душно
1006.2 980.5
штиль 0 11 км {гроза} 3/0
[Cs]
+26.3 +23.5 85 +36 +36 очень
душно
1005.8 980.1
штиль 0 10 км 3/0
[Cs]
+25.0 +22.3 85 +33 +33 очень
душно
1004.8 978.9
штиль 0 12 км 8/0
[Ac trans Cs]
+26.0 +24.3 90 +36 +38 очень
душно
1006.2 980.4 +24.8
СЗ 2 12 км 8/3 600 м
[Sc diur, vesp Ac As Ci]
+31.3 +26.0 74 +47 +54 опасность
перегрева
1007.3 981.9
СВ 2 11 км гроза, ливневой дождь 10/4 300 м
[Cb cap Ac und Cs]
+27.4 +23.9 81 +38 +44 очень
душно
1006.0 980.3 0.0 0.0
штиль 0 11 км {гроза} 8/3 600 м
[Sc diur, vesp Ac As Ci]
+29.1 +25.9 83 +44 +48 опасность
перегрева
1004.2 978.7 2
штиль 0 11 км {гроза} 8/4 600 м
[Sc diur, vesp Ac As Cs]
+27.0 +25.4 91 +39 +39 очень
душно
1005.1 979.4 +33.4 2 2.2
штиль 0 10 км 8/3 600 м
[Sc diur, vesp Ac As Cs]
+26.3 +25.6 96 +39 +39 очень
душно
1008.1 982.2
штиль 0 9000 м дымка 5/3 600 м
[Sc diur, vesp Ac As Cs]
+26.1 +25.8 98 +38 +38 очень
душно
1006.9 981.1 2.2
штиль 0 9000 м дымка 6/3 600 м
[Sc diur, vesp Ac As Cs]
+25.8 +25.6 99 +38 +38 очень
душно
1006.2 980.3
С 2 9000 м дымка 8/1 600 м
[Sc Ac As Cs]
+25.9 +25.0 95 +37 +38 очень
душно
1006.9 981.0 +25.1 2.2
штиль 0 10 км 10/3 600 м
[Sc diur, vesp Ac As Cs]
+30.4 +24.7 72 +43 +51 опасность
перегрева
1008.5 983.0
штиль 0 13 км 10/3 600 м
[Sc diur, vesp Ac As Cs]
+32.7 +24.9 64 +46 +56 опасность
перегрева
1006.3 981.0 2.2
Ю 2 13 км 8/3 600 м
[Sc diur, vesp Ac As Ci]
+32.8 +24.9 63 +46 +50 опасность
перегрева
1003.3 978.1
Местоположение метеостанции Нонгбуалампху (Таиланд): широта 17.23 долгота 102.43 высота над уровнем моря 228 м.
В архиве по умолчанию представлена погода в Нонгбуалампху за последнюю неделю. Архивные данные за месяц целиком и за предыдущие месяцы, начиная с января 2011 года, Вы можете получить, выбрав интересующий диапазон дат из раскрывающегося списка и нажав кнопку "Найти!".
*Определитесь, кто Вы:
Внимание! Время в таблицах - всемирное. Для получения местного времени необходимо прибавить поправку, которая равна 7 ч.
Смотрите также архив погоды в соседних городах и на ближайших метеорологических станциях:
Партнеры нашего сайта:      
Пояснения к столбцам:
  • Ветер - указаны скорость ветра в м/с - средняя за 10 мин, порывы в срок и между сроками (в фигурных скобках) и направление, откуда дует ветер: С - северный,
  • СВ - северо-восточный, В - восточный, ЮВ - юго-восточный, Ю - южный, ЮЗ - юго-западный, З - западный, СЗ - северо-западный.
  • Видимость - горизонтальная дальность видимости в метрах или километрах. При видимости от 1 до 10 км при отсутствии осадков обычно наблюдается дымка, при ухудшении видимости до 1 км и менее - туман. В сухую погоду видимость может ухудшаться дымом, пылью или мглою.
  • Явления - указаны атмосферные явления, наблюдавшиеся в срок или в последний час перед сроком; фигурными скобками обозначены явления, наблюдавшиеся между сроками (за 1-3 часа до срока); квадратными скобками обозначены град или гололедные отложения с указанием их диаметра в мм.
  • Облачность - указаны через наклонную черту общая и нижняя облачность в баллах и высота нижней границы облаков в метрах; квадратными скобками обозначены формы облаков: Ci - перистые, Cs - перисто-слоистые, Cc - перисто-кучевые, Ac - высококучевые, As - высокослоистые, Sc - слоисто-кучевые, Ns - слоисто-дождевые, Cu - кучевые, Cb - кучево-дождевые. Подробнее классификацию облаков см. в Атласе облаков (PDF).
  • T - Температура воздуха - температура, измеренная на высоте 2 м над землей.
  • Td - Температура точки росы - температура, при понижении до которой содержащийся в воздухе водяной пар достигнет насыщения.
  • f - Относительная влажность воздуха - влажноcть воздуха, измеренная на высоте 2 м над землей.
  • Te - Эффективная температура - температура, которую ощущает одетый по сезону человек в тени. Характеристика душности погоды. При расчете учитывается влияние влажности воздуха и скорости ветра на теплоощущения человека.
  • Tes - Эффективная температура на солнце - температура, которую ощущает человек, с поправкой на солнечный нагрев. Характеристика знойности погоды. Зависит от высоты солнца над горизонтом, облачности и скорости ветра. Ночью, в пасмурную погоду, а также при ветре 12 м/с и более поправка равна нулю.
  • P - Атмосферное давление - приведенное к уровню моря атмосферное давление.
  • Po - Атмосферное давление - измеренное на уровне метеостанции атмосферное давление.
  • Tmin - Минимальная температура - минимум температуры воздуха на высоте 2 м над землей.
  • Tmax - Максимальная температура - максимум температуры воздуха на высоте 2 м над землей.
  • R - Количество осадков - Количество выпавших осадков за период времени, мм. При наведении курсора мыши на число - период времени, за который выпало указанное количество осадков.
  • R24 - Количество осадков - Количество выпавших осадков за 24 часа, мм.
  • S - Снежный покров - Высота снежного покрова, см. При наведении курсора мыши на число - состояние снежного покрова и степень покрытия местности в баллах.